Time,TemperatureF,DewpointF,PressureIn,WindDirection,WindDirectionDegrees,WindSpeedMPH,WindSpeedGustMPH,Humidity,HourlyPrecipIn,Conditions,Clouds,dailyrainin,SoftwareType,DateUTC
2013-01-15 00:03:00,52.0,50.0,30.14,SSE,160,1.0,2.0,94,-99.99,,,-99.99,,2013-01-15 05:03:00,
2013-01-15 00:12:00,52.0,50.0,30.14,SSE,160,1.0,2.0,94,-99.99,,,-99.99,,2013-01-15 05:12:00,
2013-01-15 00:22:00,52.0,50.0,30.13,South,183,1.0,1.0,95,-99.99,,,-99.99,,2013-01-15 05:22:00,
2013-01-15 00:33:00,52.0,50.0,30.13,South,183,1.0,1.0,95,-99.99,,,-99.99,,2013-01-15 05:33:00,
2013-01-15 00:42:00,51.0,50.0,30.13,South,183,1.0,2.0,95,-99.99,,,-99.99,,2013-01-15 05:42:00,
2013-01-15 00:53:00,51.0,50.0,30.13,South,183,1.0,2.0,95,-99.99,,,-99.99,,2013-01-15 05:53:00,
2013-01-15 01:02:00,51.0,50.0,30.13,South,183,1.0,2.0,95,-99.99,,,-99.99,,2013-01-15 06:02:00,
2013-01-15 01:12:00,51.0,50.0,30.13,South,183,1.0,2.0,95,-99.99,,,-99.99,,2013-01-15 06:12:00,
2013-01-15 01:22:00,51.0,50.0,30.13,ESE,106,1.0,1.0,96,-99.99,,,-99.99,,2013-01-15 06:22:00,
2013-01-15 01:33:00,51.0,50.0,30.13,ESE,106,1.0,1.0,96,-99.99,,,-99.99,,2013-01-15 06:33:00,
2013-01-15 01:43:00,50.0,49.0,30.12,NNW,345,1.0,2.0,96,-99.99,,,-99.99,,2013-01-15 06:43:00,
2013-01-15 01:53:00,50.0,49.0,30.12,NNW,345,1.0,2.0,96,-99.99,,,-99.99,,2013-01-15 06:53:00,
2013-01-15 02:02:00,50.0,49.0,30.12,WNW,293,1.0,2.0,96,-99.99,,,-99.99,,2013-01-15 07:02:00,
2013-01-15 02:12:00,50.0,49.0,30.12,WNW,293,1.0,2.0,96,-99.99,,,-99.99,,2013-01-15 07:12:00,
2013-01-15 02:22:00,50.0,49.0,30.12,ENE,75,1.0,1.0,96,-99.99,,,-99.99,,2013-01-15 07:22:00,
2013-01-15 02:30:00,50.0,49.0,30.11,NW,326,1.0,2.0,96,-99.99,,,-99.99,,2013-01-15 07:30:00,
2013-01-15 02:33:00,50.0,49.0,30.12,ENE,75,1.0,1.0,96,-99.99,,,-99.99,,2013-01-15 07:33:00,
2013-01-15 02:42:00,50.0,49.0,30.12,ENE,75,1.0,1.0,96,-99.99,,,-99.99,,2013-01-15 07:42:00,
2013-01-15 02:53:00,50.0,49.0,30.12,ENE,75,1.0,1.0,96,-99.99,,,-99.99,,2013-01-15 07:53:00,
2013-01-15 03:02:00,50.0,49.0,30.11,NW,326,1.0,2.0,96,-99.99,,,-99.99,,2013-01-15 08:02:00,
2013-01-15 03:12:00,50.0,49.0,30.11,NW,326,1.0,2.0,96,-99.99,,,-99.99,,2013-01-15 08:12:00,
2013-01-15 03:22:00,50.0,49.0,30.11,NW,326,1.0,2.0,96,-99.99,,,-99.99,,2013-01-15 08:22:00,
2013-01-15 03:43:00,50.0,49.0,30.10,East,80,1.0,2.0,96,-99.99,,,-99.99,,2013-01-15 08:43:00,
2013-01-15 03:53:00,50.0,49.0,30.10,East,80,1.0,2.0,96,-99.99,,,-99.99,,2013-01-15 08:53:00,
2013-01-15 04:02:00,49.0,48.0,30.10,NNE,30,2.0,3.0,96,-99.99,,,-99.99,,2013-01-15 09:02:00,
2013-01-15 04:12:00,49.0,48.0,30.10,NNE,30,2.0,3.0,96,-99.99,,,-99.99,,2013-01-15 09:12:00,
2013-01-15 04:22:00,49.0,48.0,30.09,NNE,30,1.0,2.0,96,-99.99,,,-99.99,,2013-01-15 09:22:00,
2013-01-15 04:33:00,49.0,48.0,30.09,NNE,30,1.0,2.0,96,-99.99,,,-99.99,,2013-01-15 09:33:00,
2013-01-15 04:43:00,49.0,48.0,30.09,NNE,30,1.0,2.0,96,-99.99,,,-99.99,,2013-01-15 09:43:00,
2013-01-15 04:52:00,49.0,48.0,30.09,NNE,30,1.0,2.0,96,-99.99,,,-99.99,,2013-01-15 09:52:00,
2013-01-15 05:02:00,49.0,48.0,30.09,East,91,2.0,3.0,96,-99.99,,,-99.99,,2013-01-15 10:02:00,
2013-01-15 05:12:00,49.0,48.0,30.09,East,91,2.0,3.0,96,-99.99,,,-99.99,,2013-01-15 10:12:00,
2013-01-15 05:22:00,49.0,48.0,30.09,NE,37,3.0,5.0,97,-99.99,,,-99.99,,2013-01-15 10:22:00,
2013-01-15 05:30:00,50.0,50.0,30.09,NNE,25,3.0,4.0,97,-99.99,,,-99.99,,2013-01-15 10:30:00,
2013-01-15 05:33:00,49.0,48.0,30.09,NE,37,3.0,5.0,97,-99.99,,,-99.99,,2013-01-15 10:33:00,
2013-01-15 05:42:00,49.0,48.0,30.09,NE,37,3.0,5.0,97,-99.99,,,-99.99,,2013-01-15 10:42:00,
2013-01-15 05:52:00,49.0,48.0,30.09,NE,37,3.0,5.0,97,-99.99,,,-99.99,,2013-01-15 10:52:00,
2013-01-15 06:02:00,49.0,49.0,30.09,NNE,27,3.0,5.0,97,-99.99,,,-99.99,,2013-01-15 11:02:00,
2013-01-15 06:12:00,49.0,49.0,30.09,NNE,27,3.0,5.0,97,-99.99,,,-99.99,,2013-01-15 11:12:00,
2013-01-15 06:23:00,50.0,50.0,30.09,NNE,25,3.0,4.0,97,-99.99,,,-99.99,,2013-01-15 11:23:00,
2013-01-15 06:30:00,49.0,49.0,30.10,NNE,27,2.0,4.0,97,-99.99,,,-99.99,,2013-01-15 11:30:00,
2013-01-15 06:43:00,50.0,49.0,30.10,NE,36,2.0,4.0,97,-99.99,,,-99.99,,2013-01-15 11:43:00,
2013-01-15 06:53:00,50.0,49.0,30.10,NE,36,2.0,4.0,97,-99.99,,,-99.99,,2013-01-15 11:53:00,
2013-01-15 07:03:00,50.0,49.0,30.10,NE,36,2.0,4.0,97,-99.99,,,-99.99,,2013-01-15 12:03:00,
2013-01-15 07:12:00,50.0,49.0,30.10,NE,36,2.0,4.0,97,-99.99,,,-99.99,,2013-01-15 12:12:00,
2013-01-15 07:22:00,49.0,49.0,30.10,NNE,27,2.0,4.0,97,-99.99,,,-99.99,,2013-01-15 12:22:00,
2013-01-15 07:30:00,50.0,49.0,30.11,NE,36,2.0,4.0,97,-99.99,,,-99.99,,2013-01-15 12:30:00,
2013-01-15 07:43:00,49.0,49.0,30.10,NNE,30,2.0,2.0,97,-99.99,,,-99.99,,2013-01-15 12:43:00,
2013-01-15 07:53:00,49.0,49.0,30.10,NNE,30,2.0,2.0,97,-99.99,,,-99.99,,2013-01-15 12:53:00,
2013-01-15 08:03:00,50.0,49.0,30.11,ESE,106,1.0,3.0,97,-99.99,,,-99.99,,2013-01-15 13:03:00,
2013-01-15 08:13:00,50.0,49.0,30.11,ESE,106,1.0,3.0,97,-99.99,,,-99.99,,2013-01-15 13:13:00,
2013-01-15 08:23:00,50.0,49.0,30.11,NE,36,2.0,4.0,97,-99.99,,,-99.99,,2013-01-15 13:23:00,
2013-01-15 08:30:00,61.0,60.0,30.12,ENE,65,2.0,5.0,97,-99.99,,,-99.99,,2013-01-15 13:30:00,
2013-01-15 08:43:00,53.0,52.0,30.12,NE,36,2.0,5.0,98,-99.99,,,-99.99,,2013-01-15 13:43:00,
2013-01-15 08:53:00,53.0,52.0,30.12,NE,36,2.0,5.0,98,-99.99,,,-99.99,,2013-01-15 13:53:00,
2013-01-15 09:03:00,57.0,57.0,30.12,NE,40,3.0,6.0,98,-99.99,,,-99.99,,2013-01-15 14:03:00,
2013-01-15 09:13:00,57.0,57.0,30.12,NE,40,3.0,6.0,98,-99.99,,,-99.99,,2013-01-15 14:13:00,
2013-01-15 09:23:00,61.0,60.0,30.12,ENE,65,2.0,5.0,97,-99.99,,,-99.99,,2013-01-15 14:23:00,
2013-01-15 09:43:00,64.0,63.0,30.12,ENE,61,3.0,6.0,94,-99.99,,,-99.99,,2013-01-15 14:43:00,
2013-01-15 09:54:00,64.0,63.0,30.12,ENE,61,3.0,6.0,94,-99.99,,,-99.99,,2013-01-15 14:54:00,
2013-01-15 10:03:00,68.0,64.0,30.12,East,88,4.0,7.0,87,-99.99,,,-99.99,,2013-01-15 15:03:00,
2013-01-15 10:13:00,68.0,64.0,30.12,East,88,4.0,7.0,87,-99.99,,,-99.99,,2013-01-15 15:13:00,
2013-01-15 10:23:00,74.0,66.0,30.13,ESE,102,5.0,9.0,74,-99.99,,,-99.99,,2013-01-15 15:23:00,
2013-01-15 10:30:00,77.0,67.0,30.13,SE,127,6.0,11.0,69,-99.99,,,-99.99,,2013-01-15 15:30:00,
2013-01-15 10:33:00,74.0,66.0,30.13,ESE,102,5.0,9.0,74,-99.99,,,-99.99,,2013-01-15 15:33:00,
2013-01-15 10:43:00,74.0,66.0,30.13,ESE,102,5.0,9.0,74,-99.99,,,-99.99,,2013-01-15 15:43:00,
2013-01-15 10:53:00,74.0,66.0,30.13,ESE,102,5.0,9.0,74,-99.99,,,-99.99,,2013-01-15 15:53:00,
2013-01-15 11:03:00,77.0,67.0,30.13,SE,127,6.0,11.0,69,-99.99,,,-99.99,,2013-01-15 16:03:00,
2013-01-15 11:12:00,77.0,67.0,30.13,SE,127,6.0,11.0,69,-99.99,,,-99.99,,2013-01-15 16:12:00,
2013-01-15 11:23:00,77.0,67.0,30.13,SE,127,6.0,11.0,69,-99.99,,,-99.99,,2013-01-15 16:23:00,
2013-01-15 11:30:00,80.0,64.0,30.10,SSE,149,8.0,33.0,58,-99.99,,,-99.99,,2013-01-15 16:30:00,
2013-01-15 11:43:00,79.0,65.0,30.11,SE,141,7.0,16.0,61,-99.99,,,-99.99,,2013-01-15 16:43:00,
2013-01-15 11:53:00,79.0,65.0,30.11,SE,141,7.0,16.0,61,-99.99,,,-99.99,,2013-01-15 16:53:00,
2013-01-15 12:04:00,79.0,64.0,30.11,SE,142,8.0,15.0,59,-99.99,,,-99.99,,2013-01-15 17:04:00,
2013-01-15 12:13:00,79.0,64.0,30.11,SE,142,8.0,15.0,59,-99.99,,,-99.99,,2013-01-15 17:13:00,
2013-01-15 12:23:00,80.0,64.0,30.10,SSE,149,8.0,33.0,58,-99.99,,,-99.99,,2013-01-15 17:23:00,
2013-01-15 12:43:00,81.0,64.0,30.09,SE,141,8.0,13.0,55,-99.99,,,-99.99,,2013-01-15 17:43:00,
2013-01-15 12:53:00,81.0,64.0,30.09,SE,141,8.0,13.0,55,-99.99,,,-99.99,,2013-01-15 17:53:00,
2013-01-15 13:03:00,79.0,64.0,30.09,ESE,116,4.0,11.0,58,-99.99,,,-99.99,,2013-01-15 18:03:00,
2013-01-15 13:13:00,79.0,64.0,30.09,ESE,116,4.0,11.0,58,-99.99,,,-99.99,,2013-01-15 18:13:00,
2013-01-15 14:03:00,79.0,64.0,30.09,ESE,116,4.0,11.0,58,-99.99,,,-99.99,,2013-01-15 19:03:00,
2013-01-15 14:13:00,79.0,64.0,30.09,ESE,116,4.0,11.0,58,-99.99,,,-99.99,,2013-01-15 19:13:00,
2013-01-15 14:23:00,79.0,64.0,30.09,ESE,116,4.0,11.0,58,-99.99,,,-99.99,,2013-01-15 19:23:00,
2013-01-15 14:33:00,79.0,64.0,30.09,ESE,116,4.0,11.0,58,-99.99,,,-99.99,,2013-01-15 19:33:00,
2013-01-15 14:43:00,79.0,64.0,30.09,ESE,116,4.0,11.0,58,-99.99,,,-99.99,,2013-01-15 19:43:00,
2013-01-15 15:23:00,79.0,64.0,30.05,ESE,121,3.0,7.0,59,-99.99,,,-99.99,,2013-01-15 20:23:00,
2013-01-15 15:33:00,79.0,64.0,30.05,ESE,121,3.0,7.0,59,-99.99,,,-99.99,,2013-01-15 20:33:00,
2013-01-15 15:44:00,81.0,64.0,30.05,SE,138,2.0,5.0,56,-99.99,,,-99.99,,2013-01-15 20:44:00,
2013-01-15 15:53:00,81.0,64.0,30.05,SE,138,2.0,5.0,56,-99.99,,,-99.99,,2013-01-15 20:53:00,
2013-01-15 16:03:00,82.0,65.0,30.05,South,191,7.0,14.0,55,-99.99,,,-99.99,,2013-01-15 21:03:00,
2013-01-15 16:13:00,82.0,65.0,30.05,South,191,7.0,14.0,55,-99.99,,,-99.99,,2013-01-15 21:13:00,
2013-01-15 16:23:00,80.0,65.0,30.05,South,179,6.0,11.0,59,-99.99,,,-99.99,,2013-01-15 21:23:00,
2013-01-15 16:30:00,78.0,65.0,30.06,South,172,3.0,5.0,64,-99.99,,,-99.99,,2013-01-15 21:30:00,
2013-01-15 16:34:00,80.0,65.0,30.05,South,179,6.0,11.0,59,-99.99,,,-99.99,,2013-01-15 21:34:00,
2013-01-15 16:43:00,78.0,65.0,30.06,South,174,4.0,8.0,63,-99.99,,,-99.99,,2013-01-15 21:43:00,
2013-01-15 16:53:00,78.0,65.0,30.06,South,174,4.0,8.0,63,-99.99,,,-99.99,,2013-01-15 21:53:00,
2013-01-15 17:03:00,78.0,65.0,30.06,South,172,3.0,5.0,64,-99.99,,,-99.99,,2013-01-15 22:03:00,
2013-01-15 17:12:00,78.0,65.0,30.06,South,172,3.0,5.0,64,-99.99,,,-99.99,,2013-01-15 22:12:00,
2013-01-15 17:23:00,78.0,65.0,30.06,South,172,3.0,5.0,64,-99.99,,,-99.99,,2013-01-15 22:23:00,
2013-01-15 17:43:00,77.0,65.0,30.07,SSW,195,3.0,4.0,65,-99.99,,,-99.99,,2013-01-15 22:43:00,
2013-01-15 17:53:00,77.0,65.0,30.07,SSW,195,3.0,4.0,65,-99.99,,,-99.99,,2013-01-15 22:53:00,
2013-01-15 18:03:00,76.0,65.0,30.07,South,190,2.0,4.0,68,-99.99,,,-99.99,,2013-01-15 23:03:00,
2013-01-15 18:13:00,76.0,65.0,30.07,South,190,2.0,4.0,68,-99.99,,,-99.99,,2013-01-15 23:13:00,
2013-01-15 18:23:00,76.0,65.0,30.07,SSW,208,3.0,6.0,69,-99.99,,,-99.99,,2013-01-15 23:23:00,
2013-01-15 18:33:00,76.0,65.0,30.07,SSW,208,3.0,6.0,69,-99.99,,,-99.99,,2013-01-15 23:33:00,
2013-01-15 18:43:00,74.0,64.0,30.08,SSW,192,2.0,5.0,69,-99.99,,,-99.99,,2013-01-15 23:43:00,
2013-01-15 18:53:00,74.0,64.0,30.08,SSW,192,2.0,5.0,69,-99.99,,,-99.99,,2013-01-15 23:53:00,
2013-01-15 19:03:00,72.0,63.0,30.08,ESE,107,1.0,1.0,73,-99.99,,,-99.99,,2013-01-16 00:03:00,
2013-01-15 19:13:00,72.0,63.0,30.08,ESE,107,1.0,1.0,73,-99.99,,,-99.99,,2013-01-16 00:13:00,
2013-01-15 19:23:00,70.0,63.0,30.07,East,98,1.0,1.0,77,-99.99,,,-99.99,,2013-01-16 00:23:00,
2013-01-15 19:33:00,70.0,63.0,30.07,East,98,1.0,1.0,77,-99.99,,,-99.99,,2013-01-16 00:33:00,
2013-01-15 19:43:00,69.0,63.0,30.07,ESE,103,1.0,1.0,79,-99.99,,,-99.99,,2013-01-16 00:43:00,
2013-01-15 19:53:00,69.0,63.0,30.07,ESE,103,1.0,1.0,79,-99.99,,,-99.99,,2013-01-16 00:53:00,
2013-01-15 20:03:00,67.0,62.0,30.07,ESE,104,1.0,2.0,83,-99.99,,,-99.99,,2013-01-16 01:03:00,
2013-01-15 20:12:00,67.0,62.0,30.07,ESE,104,1.0,2.0,83,-99.99,,,-99.99,,2013-01-16 01:12:00,
2013-01-15 20:23:00,67.0,63.0,30.07,SE,130,1.0,2.0,84,-99.99,,,-99.99,,2013-01-16 01:23:00,
2013-01-15 20:33:00,67.0,63.0,30.07,SE,130,1.0,2.0,84,-99.99,,,-99.99,,2013-01-16 01:33:00,
2013-01-15 20:43:00,68.0,63.0,30.07,ESE,122,1.0,2.0,84,-99.99,,,-99.99,,2013-01-16 01:43:00,
2013-01-15 20:53:00,68.0,63.0,30.07,ESE,122,1.0,2.0,84,-99.99,,,-99.99,,2013-01-16 01:53:00,
2013-01-15 21:03:00,68.0,63.0,30.07,SSE,150,3.0,4.0,83,-99.99,,,-99.99,,2013-01-16 02:03:00,
2013-01-15 21:12:00,68.0,63.0,30.07,SSE,150,3.0,4.0,83,-99.99,,,-99.99,,2013-01-16 02:12:00,
2013-01-15 21:23:00,68.0,63.0,30.06,SE,126,2.0,4.0,82,-99.99,,,-99.99,,2013-01-16 02:23:00,
2013-01-15 21:33:00,68.0,63.0,30.06,SE,126,2.0,4.0,82,-99.99,,,-99.99,,2013-01-16 02:33:00,
2013-01-15 21:43:00,66.0,62.0,30.06,SE,139,3.0,4.0,86,-99.99,,,-99.99,,2013-01-16 02:43:00,
2013-01-15 21:53:00,66.0,62.0,30.06,SE,139,3.0,4.0,86,-99.99,,,-99.99,,2013-01-16 02:53:00,
2013-01-15 22:03:00,62.0,60.0,30.06,SE,137,2.0,3.0,91,-99.99,,,-99.99,,2013-01-16 03:03:00,
2013-01-15 22:12:00,62.0,60.0,30.06,SE,137,2.0,3.0,91,-99.99,,,-99.99,,2013-01-16 03:12:00,
2013-01-15 22:22:00,61.0,59.0,30.06,SE,128,3.0,4.0,93,-99.99,,,-99.99,,2013-01-16 03:22:00,
2013-01-15 22:33:00,61.0,59.0,30.06,SE,128,3.0,4.0,93,-99.99,,,-99.99,,2013-01-16 03:33:00,
2013-01-15 22:43:00,61.0,59.0,30.06,SE,128,3.0,4.0,93,-99.99,,,-99.99,,2013-01-16 03:43:00,
2013-01-15 22:53:00,61.0,59.0,30.06,SE,128,3.0,4.0,93,-99.99,,,-99.99,,2013-01-16 03:53:00,
2013-01-15 23:02:00,61.0,60.0,30.06,SE,145,3.0,5.0,95,-99.99,,,-99.99,,2013-01-16 04:02:00,
2013-01-15 23:12:00,61.0,60.0,30.06,SE,145,3.0,5.0,95,-99.99,,,-99.99,,2013-01-16 04:12:00,
2013-01-15 23:22:00,59.0,58.0,30.06,SE,145,2.0,3.0,94,-99.99,,,-99.99,,2013-01-16 04:22:00,
2013-01-15 23:33:00,59.0,58.0,30.06,SE,145,2.0,3.0,94,-99.99,,,-99.99,,2013-01-16 04:33:00,
2013-01-15 23:42:00,58.0,57.0,30.05,SSE,163,1.0,2.0,95,-99.99,,,-99.99,,2013-01-16 04:42:00,
2013-01-15 23:53:00,58.0,57.0,30.05,SSE,163,1.0,2.0,95,-99.99,,,-99.99,,2013-01-16 04:53:00,